Tracking 25620 objects as of 18-May-2022
HD Live streaming from Space Station
objects crossing your sky now

DMSP 5D-3 F18 DEB

Track DMSP 5D-3 F18 DEB now!
10-day predictions


NORAD ID: 35954
Int'l Code: 2009-057D
Perigee: 831.0 km
Apogee: 840.6 km
Inclination: 98.6 °
Period: 101.5 minutes
Semi major axis: 7206 km
RCS: 0.06 m2 (small)
Launch date: October 18, 2009
Source: United States (US)
Launch site: AIR FORCE WESTERN TEST RANGE (AFWTR)

Note: This is SATELLITE DEBRIS
aabbcc
Your satellite tracking list
Your tracking list is empty




NASA's NSSDC Master Catalog

Two Line Element Set (TLE):
1 35954U 09057D   22137.92670448  .00001606  00000-0  78905-3 0  9997
2 35954  98.5537 143.2516 0006669 118.9931 303.2529 14.19020933650193
Source of the keplerian elements: AFSPC